Location: Aldenham
(51.6667°N, 0.3500°W)
Time: 07:15:33
(UTC+00:00)

Explorer 7 - Pass Details

Date: 23 February 2026
Orbit: 430 x 541 km, 50.2° (Epoch: 12 March)

Event Time Altitude Azimuth Distance (km) Brightness Sun altitude
Rises 19:14:17 0° 276° (W) 2,512 12.0 -16.7°
Reaches altitude 10° 19:17:26 10° 247° (WSW) 1,660 10.2 -17.2°
Maximum altitude 19:19:08 13° 220° (SW) 1,510 9.5 -17.5°
Drops below altitude 10° 19:20:51 10° 193° (SSW) 1,687 9.4 -17.8°
Enters shadow 19:22:51 - 172° (S) 2,194 9.7 -18.1°
Sets 19:24:06 0° 164° (SSE) 2,596 - -18.3°
